OpenBCM V1.13 (Linux)

Packet Radio Mailbox

DB0FHN

[JN59NK Nuernberg]

 Login: GUEST





  
I0OJJ  > KEPS     18.01.26 02:33l 323 Lines 15467 Bytes #999 (0) @ AMSAT
BID : ORB26018.1
Read: OE5RCO GUEST DJ6UX
Subj: 2Line Orbital Elements 26018.AMSAT
Path: DB0FHN<DB0RKB<DK0WUE<PD0LPM<PI8ZTM<CX2SA<EA2RCF<I0OJJ
Sent: 260118/0021z @:I0OJJ.ITA.EU [Rome] obcm1.13-5-g8ab8
From: I0OJJ @ I0OJJ.ITA.EU (Gustavo)
To:   KEPS @ AMSAT
X-Info: This message was generated automatically


QST de W1STR

AMSAT Orbital Elements for Amateur Satellites in TLE Format
From Orbital Analysis Office
New England Sci-Tech STEM Education Center
Natick MA January 18, 2026
To all radio amateurs


These element sets describe the orbits of various satellites 
in use by the amateur radio community. For details see:
www.amsat.org/keplerian-elements-formats/

A daily update of element sets is available at:
www.amsat.org/tle/daily-bulletin.txt
or without bulletin text:
www.amsat.org/tle/dailytle.txt


AO-07
1 07530U 74089B   26017.50506558 -.00000033  00000-0  83533-4 0  9996
2 07530 101.9966  29.1485 0012371  59.5242  94.0008 12.53695139341631
UO-11
1 14781U 84021B   26017.44782319  .00001415  00000-0  15140-3 0  9995
2 14781  97.7859 344.9345 0006952 334.1460  25.9410 14.90282887234675
AO-27
1 22825U 93061C   26017.45146251  .00000109  00000-0  58519-4 0  9994
2 22825  98.7091  84.7945 0008481 175.5249 184.6011 14.30891468685448
FO-29
1 24278U 96046B   26017.55863129  .00000015  00000-0  47958-4 0  9996
2 24278  98.5440 246.8791 0350730 127.1212 236.2521 13.53264577452797
GO-32
1 25397U 98043D   26017.53184270  .00000058  00000-0  45149-4 0  9996
2 25397  98.9956   6.5770 0000512 339.0650  21.0507 14.24388551429880
ISS
1 25544U 98067A   26017.53064126  .00012765  00000-0  23638-3 0  9999
2 25544  51.6334 325.2886 0007793  28.8014 331.3404 15.49353150548402
NO-44
1 26931U 01043C   26017.42941481  .00000138  00000-0  82436-4 0  9997
2 26931  67.0508 274.1823 0007221 267.7756  92.2519 14.31878626268862
SO-50
1 27607U 02058C   26017.01867770  .00000976  00000-0  13405-3 0  9997
2 27607  64.5508 236.5469 0073609 290.0175  69.3016 14.82551998242045
CO-55
1 27844U 03031E   26017.49017739  .00000295  00000-0  14682-3 0  9998
2 27844  98.6766  27.9331 0008543 262.5767  97.4442 14.24214159170224
CO-57
1 27848U 03031J   26017.54440536  .00000232  00000-0  12107-3 0  9994
2 27848  98.6793  27.8199 0008448 282.7298  77.2936 14.23516919169945
RS-22
1 27939U 03042A   26017.65709582  .00000546  00000-0  93149-4 0  9992
2 27939  98.3377 197.8181 0011982  30.8818  99.6013 14.73078671193389
CO-58
1 28895U 05043F   26017.67305403  .00001328  00000-0  21940-3 0  9991
2 28895  98.2753 170.3694 0013647 326.5755  33.4589 14.72054791 79606
CO-65
1 32785U 08021C   26017.61967039  .00006117  00000-0  40649-3 0  9994
2 32785  97.8120 356.2387 0009287 170.1691 189.9719 15.07540160962492
CO-66
1 32791U 08021J   26017.64167042  .00017255  00000-0  66000-3 0  9994
2 32791  97.7461   9.0658 0005445 104.7681 255.4160 15.26644342964279
RS-30
1 32953U 08025A   26017.60398736  .00000009  00000-0 -29395-5 0  9998
2 32953  82.5028  89.1179 0018236 279.7607  80.1413 12.43173331800982
SRMSAT
1 37841U 11058D   26017.31506568  .00000398  00000-0  72418-4 0  9994
2 37841  19.9709 252.6502 0011684 344.3612 176.1592 14.11525300736475
ZACUBE-1
1 39417U 13066B   26017.43089952  .00006345  00000-0  51176-3 0  9997
2 39417  97.8088 339.0404 0042824  34.0646 326.3312 14.99517237658122
Delfi-N3xt
1 39428U 13066N   26017.55009574  .00008664  00000-0  79966-3 0  9997
2 39428  97.8358 298.2565 0078372 348.7345  11.2116 14.92535335652135
GOMX-1
1 39430U 13066Q   26017.53322493  .00001965  00000-0  30423-3 0  9998
2 39430  97.6582 227.4248 0129355 200.7653 158.8271 14.68804030647794
LO-74
1 39440U 13066AA  26017.34735425  .00003577  00000-0  34401-3 0  9992
2 39440  97.8750 325.9913 0059444 165.5965 194.6965 14.92326059654481
AO-73
1 39444U 13066AE  26017.39357492  .00010602  00000-0  70596-3 0  9997
2 39444  97.8101 346.1358 0038596 359.2251   0.8909 15.06691030656936
DTUSAT-2
1 40030U 14033W   26017.47080842  .00007839  00000-0  45501-3 0  9992
2 40030  98.0781   5.9735 0009551  39.0478 321.1439 15.12403333629883
EO-80
1 40032U 14033Y   26017.47908430  .00008380  00000-0  48475-3 0  9991
2 40032  98.0667   5.3269 0007134 344.3890  15.7118 15.12521653629863
LILACSAT-2
1 40908U 15049K   26017.60945432  .00015832  00000-0  32629-3 0  9993
2 40908  97.4874  49.1203 0009644  81.7919 278.4423 15.45945831572446
Horyu-4
1 41340U 16012D   26017.42773517  .00058185  00000-0  84406-3 0  9996
2 41340  30.9940  64.2336 0005172 223.5161 136.5081 15.54511049547104
Lapan A3
1 41603U 16040E   26017.62553594  .00003782  00000-0  12512-3 0  9994
2 41603  97.1437  18.8869 0010169 184.6088 175.5062 15.31879992531750
CAS-2T
1 41847U 16066G   26017.44244623  .00001399  00000-0  20687-3 0  9996
2 41847  98.3987  94.8325 0342635 226.6410 130.5766 14.44243746483030
TechnoSat
1 42829U 17042E   26017.39940474  .00004532  00000-0  33361-3 0  9998
2 42829  97.4057 181.0810 0017414 248.1455 111.7919 15.03725508464036
AO-91
1 43017U 17073E   26017.57935756  .00009217  00000-0  42557-3 0  9991
2 43017  97.4925 247.9751 0159972 127.1081 234.4891 15.09659295442643
S-Net D
1 43186U 18014G   26017.62774205  .00005330  00000-0  29006-3 0  9996
2 43186  97.5487 283.4389 0008524 167.9501 192.1937 15.14842491435956
S-Net B
1 43187U 18014H   26017.30610445  .00005245  00000-0  28566-3 0  9992
2 43187  97.5493 283.1013 0009294 165.0764 195.0744 15.14814818435905
S-Net A
1 43188U 18014J   26017.16491375  .00005251  00000-0  28578-3 0  9996
2 43188  97.5502 283.1432 0009124 166.2403 193.9079 15.14844420435884
S-Net C
1 43189U 18014K   26017.50737237  .00005335  00000-0  29048-3 0  9991
2 43189  97.5518 283.5345 0010805 159.4514 200.7155 15.14810585434486
Ten-Koh
1 43677U 18084G   26017.48743886  .00002009  00000-0  15806-3 0  9996
2 43677  98.0733 203.5638 0007541 263.7593  96.2771 15.02053158393533
PO-101
1 43678U 18084H   26017.61816075  .00001735  00000-0  14596-3 0  9993
2 43678  98.1099 207.5475 0006673 296.7356  63.3182 14.99675007393642
QO-100
1 43700U 18090A   26017.58903629  .00000161  00000-0  00000-0 0  9998
2 43700   0.0166  76.6519 0001895 278.9407 359.2728  1.00274650 26169
MinXSS-2
1 43758U 18099A   26017.46550325  .00029152  00000-0  81432-3 0  9990
2 43758  97.4747  90.3588 0009996  89.7930 270.4460 15.36617374390906
AO-95
1 43770U 18099N   26017.08972002  .00011020  00000-0  47309-3 0  9992
2 43770  97.4625  78.1234 0009987 152.7021 207.4742 15.22830327390193
SNUSat 2
1 43782U 18099AA  26017.63492720  .00008492  00000-0  40809-3 0  9997
2 43782  97.4304  73.4349 0012315 101.6479 258.6138 15.19003534390155
SnugLite
1 43784U 18099AC  26017.59319510  .00010930  00000-0  46406-3 0  9998
2 43784  97.4116  73.5741 0004498  98.3377 261.8370 15.23241601390368
ITASat 1
1 43786U 18099AE  26017.59570134  .00006523  00000-0  33563-3 0  9994
2 43786  97.4275  72.1648 0013912 151.8814 208.3174 15.16687300390066
EAGLET 1
1 43790U 18099AJ  26017.59045665  .00003582  00000-0  21492-3 0  9995
2 43790  97.4472  71.2056 0012391 140.3134 219.9006 15.11506774389577
ESEO
1 43792U 18099AL  26017.55230311  .00000894  00000-0  69460-4 0  9998
2 43792  97.4183  61.2707 0013392 122.7891 237.4627 15.03648245389166
JO-97
1 43803U 18099AX  26017.64887241  .00015917  00000-0  58188-3 0  9997
2 43803  97.4372  80.3719 0007596  87.0388 273.1721 15.28139184390592
Suomi 100
1 43804U 18099AY  26017.37826619  .00013836  00000-0  56696-3 0  9990
2 43804  97.4433  78.5761 0012180  92.7930 267.4701 15.24325606390415
ISAT
1 43879U 18111D   26017.52651556  .00042004  00000-0  89101-3 0  9996
2 43879  97.5917 303.7423 0008686 112.3576 247.8593 15.44904172387762
UWE-4
1 43880U 18111E   26017.28268937  .00026991  00000-0  76063-3 0  9998
2 43880  97.5868 299.8470 0010859 133.8316 226.3827 15.36350610387531
Sparrow
1 43881U 18111F   26017.51844897  .00050556  00000-0  97706-3 0  9991
2 43881  97.6107 307.7198 0006269 131.7577 228.4209 15.47602712387892
Prox-1
1 44339U 19036A   26017.43864296  .00015562  00000-0  16957-2 0  9999
2 44339  23.9972  38.1294 0007225  97.2319 262.9001 14.86249454350983
Taurus 1
1 44530U 19059C   26017.58736789  .00006554  00000-0  11058-2 0  9996
2 44530  98.6235 173.4388 0008639  66.1407 294.0702 14.69796137336509
TO-108
1 44881U 19093C   26017.65435006  .00000707  00000-0  86530-4 0  9992
2 44881  97.7719  93.4777 0012595 217.6864 142.3471 14.86196438329051
FloripaSat 1
1 44885U 19093G   26017.62938544  .00006120  00000-0  47359-3 0  9998
2 44885  97.7971 110.9953 0010897 206.6900 153.3764 15.01795708330038
RS-44
1 44909U 19096E   26017.58677742  .00000027  00000-0  58569-4 0  9999
2 44909  82.5195  79.7888 0218309 136.3305 225.5304 12.79746591283082
SALSAT
1 46495U 20068K   26017.51523412  .00008033  00000-0  30545-3 0  9997
2 46495  97.8803  11.7411 0012201 106.9402 253.3174 15.27008951292341
CSS (TIANHE-1)
1 48274U 21035A   26017.43920641  .00019264  00000-0  22918-3 0  9998
2 48274  41.4655 159.7316 0011200 302.9743  57.0018 15.60598009269603
CUTE
1 49263U 21088D   26017.50624109  .00031030  00000-0  36605-3 0  9996
2 49263  97.4306 107.0167 0005337 133.4652 226.7050 15.61288385238876
TeikyoSat 4
1 49396U 21102B   26017.61533135  .00001522  00000-0  10042-3 0  9990
2 49396  97.3860  52.8636 0013860  91.2471 269.0346 15.08827562230018
Z-Sat
1 49399U 21102E   26017.60314719  .00004748  00000-0  24386-3 0  9996
2 49399  97.3542  57.4684 0018623  55.8833 304.4164 15.16815601230609
KOSEN 1
1 49402U 21102H   26017.55432383  .00007362  00000-0  30347-3 0  9992
2 49402  97.3423  62.7055 0015125  25.9144 334.2848 15.24266232231059
HO-113
1 50466U 21131B   26017.61467610  .00000455  00000-0  15470-3 0  9990
2 50466  98.5027 110.8530 0004170 175.5198 184.6028 14.41166874213423
SNUGLITE 2
1 52899U 22065F   26017.34505933  .00001029  00000-0  20574-3 0  9999
2 52899  98.1952 162.6855 0008345 132.5508 227.6400 14.63952690188920
